When you browse on this site, cookies collect data to enhance your experience and personalize the content and advertising you see.
Visit our Privacy Policy to learn more. By continuing to use the site, you agree to this use of cookies and data.
  • In Österreich
  • Länderverzeichnis
  • Für 7 Tage
  • Wassertemperatur
  • Wetterkarte
  • News
  • Widgets
  • user-avatar
    Anmelden

    Stündliche Wetter Salta

    Heute, 1 Juni, Montag

    Zeit Temperatur Niederschläge Wind Luftdruck Luftfeuchtigkeit
    00:00 +7°C° 0 mm 0 m/S 652 mmHg 77%
    01:00 +7°C° 0 mm 0 m/S 652 mmHg 77%
    02:00 +7°C° 0 mm 0 m/S 652 mmHg 78%
    03:00 +7°C° 0 mm 0 m/S 652 mmHg 78%
    04:00 +7°C° 0 mm 0 m/S 651 mmHg 78%
    05:00 +7°C° 0 mm 0 m/S 651 mmHg 77%
    06:00 +7°C° 0 mm 0 m/S 652 mmHg 75%
    07:00 +8°C° 0 mm 0 m/S 652 mmHg 73%
    08:00 +8°C° 0 mm 0 m/S 653 mmHg 70%
    09:00 +11°C° 0 mm 1 m/S 653 mmHg 64%
    10:00 +13°C° 0 mm 1 m/S 654 mmHg 58%
    11:00 +15°C° 0 mm 1 m/S 654 mmHg 52%
    12:00 +15°C° 0 mm 2 m/S 653 mmHg 51%
    13:00 +16°C° 0 mm 2 m/S 653 mmHg 49%
    14:00 +16°C° 0 mm 2 m/S 653 mmHg 48%
    15:00 +15°C° 0 mm 2 m/S 652 mmHg 50%
    16:00 +14°C° 0 mm 2 m/S 652 mmHg 52%
    17:00 +13°C° 0 mm 2 m/S 652 mmHg 55%
    18:00 +10°C° 0 mm 2 m/S 652 mmHg 58%
    19:00 +10°C° 0 mm 1 m/S 652 mmHg 62%
    20:00 +8°C° 0 mm 1 m/S 652 mmHg 66%
    21:00 +6°C° 0 mm 0 m/S 652 mmHg 67%
    22:00 +6°C° 0 mm 0 m/S 652 mmHg 69%
    23:00 +5°C° 0 mm 0 m/S 652 mmHg 70%

    Morgen, 2 Juni, Dienstag

    Zeit Temperatur Niederschläge Wind Luftdruck Luftfeuchtigkeit
    00:00 +5°C° 0 mm 0 m/S 652 mmHg 71%
    01:00 +5°C° 0 mm 0 m/S 652 mmHg 71%
    02:00 +5°C° 0 mm 0 m/S 652 mmHg 72%
    03:00 +4°C° 0 mm 0 m/S 651 mmHg 72%
    04:00 +5°C° 0 mm 1 m/S 651 mmHg 72%
    05:00 +5°C° 0 mm 1 m/S 651 mmHg 73%
    06:00 +6°C° 0 mm 1 m/S 652 mmHg 69%
    07:00 +8°C° 0 mm 1 m/S 652 mmHg 65%
    08:00 +8°C° 0 mm 0 m/S 653 mmHg 61%
    09:00 +11°C° 0 mm 1 m/S 653 mmHg 54%
    10:00 +14°C° 0 mm 1 m/S 654 mmHg 48%
    11:00 +18°C° 0 mm 1 m/S 654 mmHg 42%
    12:00 +17°C° 0 mm 2 m/S 653 mmHg 41%
    13:00 +18°C° 0 mm 2 m/S 652 mmHg 40%
    14:00 +19°C° 0 mm 2 m/S 652 mmHg 39%
    15:00 +18°C° 0 mm 2 m/S 651 mmHg 42%
    16:00 +16°C° 0 mm 2 m/S 651 mmHg 46%
    17:00 +15°C° 0 mm 2 m/S 650 mmHg 49%
    18:00 +13°C° 0 mm 1 m/S 650 mmHg 54%
    19:00 +11°C° 0 mm 1 m/S 649 mmHg 58%
    20:00 +9°C° 0 mm 1 m/S 649 mmHg 63%
    21:00 +8°C° 0 mm 1 m/S 649 mmHg 64%
    22:00 +8°C° 0 mm 1 m/S 649 mmHg 66%
    23:00 +7°C° 0 mm 1 m/S 648 mmHg 68%

    übermorgen, 3 Juni, Mittwoch

    Zeit Temperatur Niederschläge Wind Luftdruck Luftfeuchtigkeit
    00:00 +7°C° 0 mm 1 m/S 648 mmHg 69%
    01:00 +7°C° 0 mm 1 m/S 648 mmHg 69%
    02:00 +7°C° 0 mm 1 m/S 647 mmHg 70%
    03:00 +6°C° 0 mm 1 m/S 647 mmHg 70%
    04:00 +6°C° 0 mm 1 m/S 647 mmHg 70%
    05:00 +6°C° 0 mm 1 m/S 647 mmHg 70%
    06:00 +7°C° 0 mm 1 m/S 647 mmHg 67%
    07:00 +8°C° 0 mm 1 m/S 648 mmHg 64%
    08:00 +9°C° 0 mm 1 m/S 648 mmHg 60%
    09:00 +11°C° 0 mm 1 m/S 649 mmHg 54%
    10:00 +14°C° 0 mm 1 m/S 649 mmHg 48%
    11:00 +16°C° 0 mm 2 m/S 650 mmHg 42%
    12:00 +17°C° 0 mm 2 m/S 650 mmHg 40%
    13:00 +18°C° 0 mm 2 m/S 649 mmHg 38%
    14:00 +19°C° 0 mm 2 m/S 649 mmHg 36%
    15:00 +19°C° 0 mm 1 m/S 648 mmHg 40%
    16:00 +18°C° 0 mm 1 m/S 648 mmHg 45%
    17:00 +16°C° 0 mm 1 m/S 648 mmHg 50%
    18:00 +14°C° 0 mm 1 m/S 648 mmHg 58%
    19:00 +12°C° 0 mm 1 m/S 648 mmHg 66%
    20:00 +10°C° 0 mm 1 m/S 648 mmHg 75%
    21:00 +9°C° 0 mm 1 m/S 649 mmHg 78%
    22:00 +9°C° 0 mm 1 m/S 649 mmHg 80%
    23:00 +8°C° 0 mm 1 m/S 649 mmHg 83%

    4 Juni, Donnerstag

    Zeit Temperatur Niederschläge Wind Luftdruck Luftfeuchtigkeit
    00:00 +8°C° 0 mm 1 m/S 649 mmHg 85%
    01:00 +7°C° 0 mm 0 m/S 649 mmHg 86%
    02:00 +7°C° 0 mm 0 m/S 649 mmHg 88%
    03:00 +7°C° 0 mm 0 m/S 649 mmHg 87%
    04:00 +8°C° 0 mm 0 m/S 650 mmHg 87%
    05:00 +8°C° 0 mm 0 m/S 650 mmHg 87%
    06:00 +9°C° 0 mm 0 m/S 650 mmHg 85%
    07:00 +9°C° 0 mm 0 m/S 650 mmHg 83%
    08:00 +9°C° 0 mm 0 m/S 650 mmHg 81%
    09:00 +11°C° 0 mm 1 m/S 650 mmHg 75%
    10:00 +13°C° 0 mm 2 m/S 650 mmHg 70%
    11:00 +14°C° 0 mm 2 m/S 650 mmHg 64%
    12:00 +14°C° 0 mm 2 m/S 649 mmHg 63%
    13:00 +13°C° 0 mm 3 m/S 648 mmHg 63%
    14:00 +13°C° 0 mm 3 m/S 647 mmHg 62%
    15:00 +13°C° 0 mm 2 m/S 647 mmHg 67%
    16:00 +12°C° 0 mm 2 m/S 647 mmHg 72%
    17:00 +10°C° 0 mm 2 m/S 647 mmHg 76%
    18:00 +9°C° 0.1 mm 2 m/S 647 mmHg 80%
    19:00 +9°C° 0.1 mm 2 m/S 647 mmHg 84%
    20:00 +8°C° 0.1 mm 2 m/S 647 mmHg 88%
    21:00 +9°C° 0 mm 1 m/S 648 mmHg 89%
    22:00 +8°C° 0 mm 1 m/S 648 mmHg 90%
    23:00 +8°C° 0 mm 1 m/S 648 mmHg 91%

    5 Juni, Freitag

    Zeit Temperatur Niederschläge Wind Luftdruck Luftfeuchtigkeit
    00:00 +8°C° 0 mm 1 m/S 648 mmHg 91%
    01:00 +8°C° 0 mm 1 m/S 649 mmHg 91%
    02:00 +8°C° 0 mm 1 m/S 649 mmHg 91%
    03:00 +8°C° 0 mm 1 m/S 649 mmHg 91%
    04:00 +7°C° 0 mm 1 m/S 649 mmHg 90%
    05:00 +7°C° 0 mm 1 m/S 649 mmHg 90%
    06:00 +6°C° 0 mm 0 m/S 650 mmHg 86%
    07:00 +7°C° 0 mm 0 m/S 650 mmHg 82%
    08:00 +7°C° 0 mm 0 m/S 651 mmHg 78%
    09:00 +11°C° 0 mm 1 m/S 652 mmHg 68%
    10:00 +13°C° 0 mm 1 m/S 652 mmHg 58%
    11:00 +16°C° 0 mm 1 m/S 653 mmHg 48%
    12:00 +17°C° 0 mm 2 m/S 652 mmHg 44%
    13:00 +18°C° 0 mm 2 m/S 652 mmHg 39%
    14:00 +19°C° 0 mm 2 m/S 652 mmHg 34%
    15:00 +18°C° 0 mm 2 m/S 651 mmHg 38%
    16:00 +17°C° 0 mm 2 m/S 651 mmHg 42%
    17:00 +16°C° 0 mm 2 m/S 651 mmHg 46%
    18:00 +14°C° 0 mm 1 m/S 651 mmHg 52%
    19:00 +12°C° 0 mm 1 m/S 651 mmHg 57%
    20:00 +10°C° 0 mm 1 m/S 651 mmHg 62%
    21:00 +9°C° 0 mm 1 m/S 651 mmHg 63%
    22:00 +8°C° 0 mm 0 m/S 651 mmHg 63%
    23:00 +8°C° 0 mm 0 m/S 651 mmHg 64%

    6 Juni, Samstag

    Zeit Temperatur Niederschläge Wind Luftdruck Luftfeuchtigkeit
    00:00 +8°C° 0 mm 1 m/S 651 mmHg 64%
    01:00 +8°C° 0 mm 1 m/S 651 mmHg 64%
    02:00 +8°C° 0 mm 1 m/S 651 mmHg 64%
    03:00 +8°C° 0 mm 1 m/S 651 mmHg 62%
    04:00 +8°C° 0 mm 1 m/S 651 mmHg 60%
    05:00 +8°C° 0 mm 1 m/S 650 mmHg 58%
    06:00 +9°C° 0 mm 1 m/S 651 mmHg 54%
    07:00 +10°C° 0 mm 1 m/S 652 mmHg 51%
    08:00 +11°C° 0 mm 1 m/S 652 mmHg 47%
    09:00 +14°C° 0 mm 1 m/S 653 mmHg 41%
    10:00 +18°C° 0 mm 1 m/S 654 mmHg 35%
    11:00 +21°C° 0 mm 1 m/S 654 mmHg 29%
    12:00 +22°C° 0 mm 1 m/S 654 mmHg 27%
    13:00 +23°C° 0 mm 2 m/S 653 mmHg 26%
    14:00 +23°C° 0 mm 2 m/S 652 mmHg 25%
    15:00 +21°C° 0 mm 2 m/S 652 mmHg 30%
    16:00 +21°C° 0 mm 1 m/S 651 mmHg 34%
    17:00 +19°C° 0 mm 1 m/S 651 mmHg 39%
    18:00 +16°C° 0 mm 1 m/S 651 mmHg 42%
    19:00 +14°C° 0 mm 1 m/S 650 mmHg 46%
    20:00 +12°C° 0 mm 1 m/S 650 mmHg 49%
    21:00 +11°C° 0 mm 1 m/S 650 mmHg 51%
    22:00 +11°C° 0 mm 1 m/S 650 mmHg 53%
    23:00 +11°C° 0 mm 1 m/S 650 mmHg 55%
    Mehr zeigen